{"data":{"norad_id":63638,"intl_designator":"2025-083E","name":"STARLINK-33856","alt_names":[],"object_type":"PAYLOAD","status":"ACTIVE","operator":null,"country":"US","launch_date":"2025-04-25","launch_site_code":"AFETR","launch_vehicle":null,"mission":null,"orbit_class":"UNKNOWN","rcs_meters":null,"size_class":null,"mass_kg":null,"dimensions":null,"purposes":["comms"],"wikipedia_slug":null,"has_3d_model":false,"image_url":null,"decayed_at":null,"tle_current":{"epoch":"2026-05-24T21:29:43.603584Z","epoch_age_seconds":88075,"freshness":"FRESH","line1":"1 63638U 25083E   26144.89564356  .00012972  00000+0  48003-3 0  9995","line2":"2 63638  42.9990 294.6599 0001009 257.0375 103.0364 15.27583186 61723","mean_motion":15.27583186,"eccentricity":0.0001009,"inclination_deg":42.999,"raan_deg":294.6599,"arg_perigee_deg":257.0375,"mean_anomaly_deg":103.0364,"bstar":0.00048003,"rev_number":6172,"period_min":94.266552106446,"perigee_km":482.34726331157,"apogee_km":483.73184874058,"semimajor_km":6861.1765560261,"source":"CELESTRAK","updated_at":"2026-05-25T13:38:20.052587Z"}}}